Reus, Spain

11:06 PM CEST on April 28, 2017 (GMT +0200)
Reus Air Base

Weather History for LERS - January, 2013

Change the Weather History Date:

Monday, January 7, 2013

  Actual Average Record
Temperature  
Mean Temperature 53 °F -  
Max Temperature 69 °F 55 °F 70 °F (2016)
Min Temperature 37 °F 39 °F 28 °F (2009)
Degree Days  
Heating Degree Days 12    
Growing Degree Days 3 (Base 50)    
Moisture  
Dew Point 38 °F    
Average Humidity 58    
Maximum Humidity 87    
Minimum Humidity 31    
Precipitation  
Precipitation 0.00 in - - ()
Sea Level Pressure  
Sea Level Pressure 30.20 in    
Wind  
Wind Speed 1 mph ()    
Max Wind Speed 5 mph    
Max Gust Speed -    
Visibility 5.7 miles    
Events      
Averages and records for this station are not official NWS values.
T = Trace of Precipitation, MM = Missing Value Source: Averaged Metar Reports

Daily Weather History Graph

Daily Weather History Graph

Search for Another Location

Airport or City:

Trip Planner

Search our weather history database for the weather conditions in past years. The results will help you decide how hot, cold, wet, or windy it might be!

Date:

Astronomy

Jan. 07, 2013 Rise Set
Actual Time 8:20 AM CET 5:42 PM CET
Civil Twilight 7:49 AM CET 6:13 PM CET
Nautical Twilight 7:15 AM CET 6:48 PM CET
Astronomical Twilight 6:42 AM CET 7:21 PM CET
Moon 3:26 AM CET (1/7) 1:42 PM CET (1/7)
Length of Visible Light 10h 23m
Length of Day
9h 22m
Waning Crescent, 25% of the Moon is Illuminated
Jan 7
Waning Crescent
Jan 11
New
Jan 19
First Quarter
Jan 27
Full
Feb 3
Last Quarter

Hourly Weather History & Observations

Time (CET) Temp. Windchill Dew Point Humidity Pressure Visibility Wind Dir Wind Speed Gust Speed Precip Events Conditions
7:30 AM 37.4 °F - 33.8 °F 87% 30.18 in 6.2 mi Variable 1.2 mph - N/A   Partly Cloudy
8:00 AM 39.2 °F - 33.8 °F 81% 30.18 in 6.2 mi Calm Calm - N/A   Partly Cloudy
8:30 AM 37.4 °F - 33.8 °F 87% 30.18 in 6.2 mi Variable 1.2 mph - N/A   Partly Cloudy
9:00 AM 39.2 °F - 33.8 °F 81% 30.21 in - Calm Calm - N/A   Clear
9:30 AM 41.0 °F - 35.6 °F 81% 30.21 in - Variable 1.2 mph - N/A   Clear
10:00 AM 51.8 °F - 41.0 °F 67% 30.21 in - Variable 1.2 mph - N/A   Clear
10:30 AM 57.2 °F - 41.0 °F 55% 30.21 in - Calm Calm - N/A   Clear
11:00 AM 59.0 °F - 41.0 °F 51% 30.21 in - Calm Calm - N/A   Clear
11:30 AM 60.8 °F - 35.6 °F 39% 30.21 in - Variable 1.2 mph - N/A   Clear
12:00 PM 64.4 °F - 39.2 °F 40% 30.21 in - Calm Calm - N/A   Clear
12:30 PM 64.4 °F - 37.4 °F 37% 30.21 in - Variable 1.2 mph - N/A   Clear
1:30 PM 66.2 °F - 35.6 °F 32% 30.18 in - Variable 1.2 mph - N/A   Clear
2:00 PM 69.8 °F - 37.4 °F 31% 30.18 in - Variable 1.2 mph - N/A   Clear
2:30 PM 69.8 °F - 37.4 °F 31% 30.15 in - Calm Calm - N/A   Clear
3:00 PM 69.8 °F - 39.2 °F 33% 30.15 in - Variable 1.2 mph - N/A   Clear
3:30 PM 69.8 °F - 39.2 °F 33% 30.15 in - South 3.5 mph - N/A   Clear
4:00 PM 68.0 °F - 39.2 °F 35% 30.18 in - Variable 2.3 mph - N/A   Clear
4:30 PM 68.0 °F - 41.0 °F 37% 30.18 in - SSE 3.5 mph - N/A   Clear
5:00 PM 62.6 °F - 41.0 °F 45% 30.18 in - ESE 3.5 mph - N/A   Clear
5:30 PM 60.8 °F - 41.0 °F 48% 30.18 in - Variable 2.3 mph - N/A   Clear
6:00 PM 55.4 °F - 39.2 °F 54% 30.21 in - East 4.6 mph - N/A   Clear
7:00 PM 51.8 °F - 39.2 °F 62% 30.21 in - Variable 1.2 mph - N/A   Clear
7:30 PM 46.4 °F - 39.2 °F 76% 30.24 in - Calm Calm - N/A   Clear
8:00 PM 46.4 °F - 39.2 °F 76% 30.24 in 5.0 mi Variable 1.2 mph - N/A   Unknown
8:30 PM 44.6 °F - 39.2 °F 81% 30.24 in 5.0 mi Calm Calm - N/A   Unknown
9:00 PM 44.6 °F - 39.2 °F 81% 30.24 in - Variable 1.2 mph - N/A   Clear
9:30 PM 44.6 °F - 39.2 °F 81% 30.24 in - Variable 2.3 mph - N/A   Clear
10:00 PM 44.6 °F 43.1 °F 39.2 °F 81% 30.24 in - North 3.5 mph - N/A   Clear